This is the latest recevied weather packets stored in our database for station/object NO4D. If no packets are shown the sender has not sent any weather packets the latest 10 day(s).
| Time | Temp. | Humidity | Pressure | Rain* | Wind** | Luminosity | Snow |
|---|---|---|---|---|---|---|---|
| 1777668233 | 20° C | 56% | 1012.5 hPa | 0 mm | - | 594 W/m² | - |
| 1777667929 | 19.44° C | 61% | 1012.6 hPa | 0 mm | - | 617 W/m² | - |
| 1777667627 | 18.89° C | 60% | 1012.6 hPa | 0 mm | - | 319 W/m² | - |
| 1777667323 | 18.89° C | 60% | 1012.9 hPa | 0 mm | - | 735 W/m² | - |
| 1777667020 | 18.89° C | 59% | 1013 hPa | 0 mm | - | 498 W/m² | - |
| 1777666717 | 18.89° C | 58% | 1013 hPa | 0 mm | - | 372 W/m² | - |
| 1777666414 | 18.89° C | 60% | 1013.1 hPa | 0 mm | - | 399 W/m² | - |
| 1777666110 | 20° C | 59% | 1012.9 hPa | 0 mm | - | 670 W/m² | - |
| 1777665807 | 19.44° C | 58% | 1012.7 hPa | 0 mm | - | 549 W/m² | - |
| 1777665505 | 20° C | 58% | 1013 hPa | 0 mm | - | 589 W/m² | - |
| 1777665201 | 19.44° C | 59% | 1013 hPa | 0 mm | - | 311 W/m² | - |
| 1777664897 | 19.44° C | 56% | 1013.3 hPa | 0 mm | - | 367 W/m² | - |
| 1777664593 | 19.44° C | 56% | 1013.3 hPa | 0 mm | - | 596 W/m² | - |
| 1777664290 | 18.89° C | 56% | 1013.3 hPa | 0 mm | - | 502 W/m² | - |
| 1777663989 | 18.89° C | 55% | 1013.6 hPa | 0 mm | - | 362 W/m² | - |
| 1777663686 | 18.89° C | 57% | 1013.7 hPa | 0 mm | - | 556 W/m² | - |
| 1777663382 | 19.44° C | 54% | 1013.7 hPa | 0 mm | - | 327 W/m² | - |
| 1777663079 | 18.89° C | 57% | 1013.7 hPa | 0 mm | - | 532 W/m² | - |
| 1777662776 | 18.89° C | 53% | 1013.8 hPa | 0 mm | - | 678 W/m² | - |
| 1777662473 | 18.89° C | 55% | 1014.1 hPa | 0 mm | - | 691 W/m² | - |
| 1777662169 | 19.44° C | 54% | 1014.2 hPa | 0 mm | - | 590 W/m² | - |
| 1777661865 | 18.89° C | 55% | 1014.1 hPa | 0 mm | - | 564 W/m² | - |
| 1777661560 | 18.89° C | 57% | 1014.1 hPa | 0 mm | - | 634 W/m² | - |
| 1777661257 | 18.33° C | 55% | 1014.1 hPa | 0 mm | - | 603 W/m² | - |
| 1777660952 | 17.78° C | 57% | 1014.2 hPa | 0 mm | - | 506 W/m² | - |
* Rain latest hour (hover to see other rain measurements)
** Current wind speed in m/s (hover to see current wind gust speed)